This is the latest recevied weather packets stored in our database for station/object W8DRH-13. If no packets are shown the sender has not sent any weather packets the latest 10 day(s).
| Time | Temp. | Humidity | Pressure | Rain* | Wind** | Luminosity | Snow |
|---|---|---|---|---|---|---|---|
| 1777329929 | 22.22° C | 63% | 1012.4 hPa | 0 mm | - | 8 W/m² | - |
| 1777329627 | 22.22° C | 63% | 1012.4 hPa | 0 mm | - | 9 W/m² | - |
| 1777329325 | 22.22° C | 63% | 1012.1 hPa | 0 mm | - | 9 W/m² | - |
| 1777329022 | 22.22° C | 63% | 1012.3 hPa | 0 mm | - | 10 W/m² | - |
| 1777328720 | 22.22° C | 63% | 1012.3 hPa | 0 mm | - | 12 W/m² | - |
| 1777328417 | 22.22° C | 63% | 1012.2 hPa | 0 mm | - | 13 W/m² | - |
| 1777328116 | 22.78° C | 62% | 1012.1 hPa | 0 mm | - | 17 W/m² | - |
| 1777327814 | 22.78° C | 62% | 1012.2 hPa | 0 mm | - | 20 W/m² | - |
| 1777327511 | 22.78° C | 62% | 1011.9 hPa | 0 mm | - | 23 W/m² | - |
| 1777327209 | 22.78° C | 62% | 1011.7 hPa | 0 mm | - | 23 W/m² | - |
| 1777326906 | 22.78° C | 62% | 1011.8 hPa | 0 mm | - | 27 W/m² | - |
| 1777326603 | 22.78° C | 61% | 1011.4 hPa | 0 mm | - | 31 W/m² | - |
| 1777326299 | 22.78° C | 61% | 1011.3 hPa | 0 mm | - | 36 W/m² | - |
| 1777325997 | 22.78° C | 61% | 1011.3 hPa | 0 mm | - | 39 W/m² | - |
| 1777325695 | 22.78° C | 62% | 1011 hPa | 0 mm | - | 48 W/m² | - |
| 1777325393 | 22.78° C | 62% | 1011 hPa | 0 mm | - | 59 W/m² | - |
| 1777325090 | 22.78° C | 62% | 1010.9 hPa | 0 mm | - | 62 W/m² | - |
| 1777324786 | 22.78° C | 61% | 1010.9 hPa | 0 mm | - | 69 W/m² | - |
| 1777324485 | 22.78° C | 61% | 1010.8 hPa | 0 mm | - | 75 W/m² | - |
| 1777324181 | 22.78° C | 60% | 1011.3 hPa | 0 mm | - | 82 W/m² | - |
| 1777323880 | 22.78° C | 60% | 1011.4 hPa | 0 mm | - | 87 W/m² | - |
| 1777323576 | 22.78° C | 60% | 1011.6 hPa | 0 mm | - | 93 W/m² | - |
| 1777322670 | 22.78° C | 60% | 1011.4 hPa | 0 mm | - | 115 W/m² | - |
| 1777322367 | 22.78° C | 60% | 1011.4 hPa | 0 mm | - | 115 W/m² | - |
| 1777322063 | 22.78° C | 59% | 1011.7 hPa | 0 mm | - | 139 W/m² | - |
* Rain latest hour (hover to see other rain measurements)
** Current wind speed in m/s (hover to see current wind gust speed)